, AK

(GMT )
Portage Glacier

Weather History for PATO - February, 2014

Change the Weather History Date:

Monday, February 3, 2014

  Actual Average Record
Temperature  
Mean Temperature 34 °F -  
Max Temperature 36 °F - - ()
Min Temperature 33 °F - - ()
Degree Days  
Heating Degree Days 30    
Moisture  
Dew Point 22 °F    
Average Humidity 60    
Maximum Humidity 72    
Minimum Humidity 48    
Precipitation  
Precipitation 0.00 in - - ()
Sea Level Pressure  
Sea Level Pressure 30.50 in    
Wind  
Wind Speed 9 mph (SE)    
Max Wind Speed 13 mph    
Max Gust Speed 22 mph    
Visibility 10 miles    
Events      
Averages and records for this station are not official NWS values.
T = Trace of Precipitation, MM = Missing Value Source: NWS Daily Summary

Daily Weather History Graph

Daily Weather History Graph

Search for Another Location

Airport or City:

Trip Planner

Search our weather history database for the weather conditions in past years. The results will help you decide how hot, cold, wet, or windy it might be!

Date:

Astronomy

Feb. 03, 2014 Rise Set
Actual Time 9:07 AM AKST 5:11 PM AKST
Civil Twilight 8:19 AM AKST 5:59 PM AKST
Nautical Twilight 7:28 AM AKST 6:51 PM AKST
Astronomical Twilight 6:38 AM AKST 7:41 PM AKST
Moon 9:50 AM AKST (2/3) 11:48 PM AKST (2/3)
Length of Visible Light 9h 39m
Length of Day
8h 03m
Waxing Crescent, 21% of the Moon is Illuminated
Feb 3
Waxing Crescent
Feb 6
First Quarter
Feb 14
Full
Feb 22
Last Quarter
Feb 28
New

Hourly Weather History & Observations

Time (AKST) Temp. Windchill Dew Point Humidity Pressure Visibility Wind Dir Wind Speed Gust Speed Precip Events Conditions
12:53 AM 33.1 °F 26.9 °F 24.1 °F 70% 30.46 in 10.0 mi Variable 6.9 mph 18.4 mph N/A   Partly Cloudy
1:53 AM 33.1 °F 24.9 °F 24.1 °F 70% 30.46 in 10.0 mi SE 10.4 mph 20.7 mph N/A   Clear
2:53 AM 33.1 °F 23.9 °F 25.0 °F 72% 30.47 in 10.0 mi SSE 12.7 mph 21.9 mph N/A   Partly Cloudy
3:53 AM 33.1 °F 26.9 °F 25.0 °F 72% 30.47 in 10.0 mi Variable 6.9 mph 17.3 mph N/A   Partly Cloudy
4:53 AM 33.1 °F 26.1 °F 25.0 °F 72% 30.47 in 10.0 mi SE 8.1 mph 18.4 mph N/A   Mostly Cloudy
5:53 AM 33.1 °F 24.9 °F 25.0 °F 72% 30.46 in 10.0 mi SE 10.4 mph - N/A   Mostly Cloudy
6:53 AM 33.1 °F 25.5 °F 24.1 °F 70% 30.46 in 10.0 mi SE 9.2 mph - N/A   Scattered Clouds
7:53 AM 33.1 °F 25.5 °F 23.0 °F 66% 30.46 in 10.0 mi SE 9.2 mph 18.4 mph N/A   Mostly Cloudy
8:53 AM 34.0 °F 27.2 °F 23.0 °F 64% 30.47 in 10.0 mi SE 8.1 mph - N/A   Overcast
9:53 AM 34.0 °F 28.0 °F 21.9 °F 61% 30.48 in 10.0 mi SSE 6.9 mph - N/A   Overcast
10:53 AM 36.0 °F 29.6 °F 21.9 °F 57% 30.48 in 10.0 mi SSE 8.1 mph - N/A   Overcast
11:53 AM 36.0 °F 29.0 °F 21.0 °F 55% 30.49 in 10.0 mi SE 9.2 mph 16.1 mph N/A   Overcast
12:53 PM 36.0 °F 29.0 °F 21.9 °F 57% 30.49 in 10.0 mi SE 9.2 mph - N/A   Overcast
1:53 PM 36.0 °F 30.3 °F 21.9 °F 57% 30.49 in 10.0 mi Variable 6.9 mph 17.3 mph N/A   Overcast
2:53 PM 36.0 °F 30.3 °F 21.9 °F 57% 30.50 in 10.0 mi SE 6.9 mph - N/A   Overcast
3:53 PM 36.0 °F 29.6 °F 21.9 °F 57% 30.50 in 10.0 mi SE 8.1 mph 17.3 mph N/A   Overcast
4:53 PM 36.0 °F 28.5 °F 21.0 °F 55% 30.51 in 10.0 mi SE 10.4 mph 17.3 mph N/A   Overcast
5:53 PM 36.0 °F 30.3 °F 19.0 °F 50% 30.51 in 10.0 mi SE 6.9 mph - N/A   Overcast
6:53 PM 35.1 °F 27.9 °F 19.0 °F 52% 30.51 in 10.0 mi SE 9.2 mph - N/A   Clear
7:53 PM 36.0 °F 29.6 °F 18.0 °F 48% 30.53 in 10.0 mi SE 8.1 mph - N/A   Clear
8:53 PM 36.0 °F 29.6 °F 19.0 °F 50% 30.53 in 10.0 mi SE 8.1 mph - N/A   Mostly Cloudy
9:53 PM 36.0 °F 29.0 °F 19.0 °F 50% 30.54 in 10.0 mi SSE 9.2 mph 16.1 mph N/A   Mostly Cloudy
10:53 PM 36.0 °F 31.1 °F 19.0 °F 50% 30.56 in 10.0 mi Variable 5.8 mph 16.1 mph N/A   Mostly Cloudy
11:53 PM 35.1 °F 27.9 °F 19.9 °F 54% 30.58 in 10.0 mi SSE 9.2 mph - N/A   Clear